Hourly Data Report for December 30, 2020

SHEARWATER RCS
NOVA SCOTIA
Current Station Operator: ECCC - MSC

44°37'47.000" N
63°30'48.000" W
24.00 m
8205092
71264
AAW

Download Data

Hourly Data (December 2020)
Hourly Data Report for December 30, 2020
TIME
LST
Temp Definition
°C
Dew Point Definition
°C
Rel Hum Definition
%
Precip. Amount Definition
mm

Wind Dir Definition
10's deg

Wind Spd Definition
km/h
Visibility Definition
km
Stn Press Definition
kPa
Hmdx Definition


Wind Chill Definition


Weather Definition


00:00 -5.4 -13.2 54 0.0 30 28   101.42   -13 LegendNANA
01:00 -5.8 -13.4 55 0.0 30 23   101.46   -13 LegendNANA
02:00 -5.7 -12.5 58 0.0 29 19   101.57   -12 LegendNANA
03:00 -5.8 -12.5 59 0.0 29 23   101.63   -13 LegendNANA
04:00 -5.9 -12.4 60 0.0 29 21   101.66   -13 LegendNANA
05:00 -6.0 -12.4 61 0.0 28 18   101.68   -12 LegendNANA
06:00 -5.8 -11.7 63 0.0 29 18   101.70   -12 LegendNANA
07:00 -5.7 -11.5 64 0.0 28 20   101.78   -12 LegendNANA
08:00 -5.6 -11.7 62 0.0 28 16   101.86   -12 LegendNANA
09:00 -4.8 -11.3 60 0.2 29 16   101.88   -11 LegendNANA
10:00 -3.8 -11.2 56 0.0 29 20   102.00   -10 LegendNANA
11:00 -2.8 -11.2 53 0.0 29 20   101.98   -9 LegendNANA
12:00 -2.3 -11.0 52 0.0 31 20   101.87   -8 LegendNANA
13:00 -1.2 -9.7 53 0.0 29 17   101.81   -6 LegendNANA
14:00 -0.4 -9.1 52 0.0 30 18   101.82   -5 LegendNANA
15:00 -0.9 -10.3 49 0.0 30 20   101.89   -6 LegendNANA
16:00 -1.2 -10.3 50 0.0 30 15   101.93   -6 LegendNANA
17:00 -2.0 -9.7 55 0.0 30 11   101.98   -6 LegendNANA
18:00 -2.1 -8.9 59 0.0 30 11   102.01   -6 LegendNANA
19:00 -2.3 -8.7 61 0.0 27 5   102.05   -4 LegendNANA
20:00 -2.7 -7.7 69 0.0 25 6   102.09   -5 LegendNANA
21:00 -2.2 -7.3 68 0.0 25 5   102.05   -4 LegendNANA
22:00 -3.0 -7.2 73 0.0 18 3   101.97   -4 LegendNANA
23:00 -1.6 -5.6 74 0.0 22 9   101.89   -5 LegendNANA

Notes on Data Quality.

Legend

  • E = Estimated
  • M = Missing
  • NA = Not Available*
  • [empty] = Indicates an unobserved value
Date modified: